Location: Pasarilla del Rebollar
(40.6790°N, 5.0062°W)
Time: 11:26:25
(UTC+00:00)

CZ-2D R/B - Pass Details

Date: 22 April 2026
Orbit: 789 x 841 km, 98.9° (Epoch: 15 May)

Event Time Altitude Azimuth Distance (km) Brightness Sun altitude
Rises 02:16:20 0° 25° (NNE) 3,315 6.4 -30.6°
Reaches altitude 10° 02:18:58 10° 37° (NE) 2,387 5.5 -30.3°
Maximum altitude 02:23:30 28° 96° (E) 1,469 3.6 -29.8°
Enters shadow 02:24:34 26° 117° (ESE) 1,538 3.6 -29.7°
